Location: Grisols
(45.0093°N, 3.1167°E)
Time: 08:49:46
(UTC+00:00)

Cosmos 1461 - Pass Details

Date: 21 October 2019
Orbit: 524 x 644 km, 65.0° (Epoch: 13 November)

Event Time Altitude Azimuth Distance (km) Brightness Sun altitude
Rises 18:14:10 0° 322° (NW) 2,712 6.9 -15.0°
Reaches altitude 10° 18:16:21 10° 320° (NW) 1,831 6.0 -15.4°
Maximum altitude 18:20:26 67° 239° (WSW) 613 3.2 -16.1°
Drops below altitude 10° 18:24:38 10° 156° (SSE) 1,888 5.3 -16.9°
Enters shadow 18:24:56 - 155° (SSE) 2,008 5.4 -16.9°
